THORAD DELTA 1 DEB, 8562

Orbit data source: Space-Track

THORAD DELTA 1 DEB, 8562 is space debris in SSO originally from a launch on Fri, 15 Nov 1974 UTC launched from the Air Force Western Test Range (AFWTR). Debris objects in space refer to the collection of defunct objects orbiting the Earth. Examples of debris include non-operational satellites, rocket bodies, and fragments generated from explosions, collisions, or faulty payload assembly.

Loading next visibility...
Identifier
8562, 1974-089CZ
Orbit
SSO
Country
Flag of USUS
Related business
Manufacturer
Unknown
Mission
Spacecraft
Bus & Motor
Unknown
Mass
Unknown
Launch date (UTC)
1974-11-15 (51 years ago)
Launch vehicle
Unknown
Launch site
Air Force Western Test Range (AFWTR)
Object type
Payload
Rocket body
Debris
Shape & HBR
Unknown shape, 0.1 m
Radar Cross Section
Small (<0.1 m²)

Expand to show TLE details & history
Last TLE update: 17 hours ago

TLE from 17 hours ago
0 THORAD DELTA 1 DEB
1  8562U 74089CZ  25300.29112734  .00000255  00000-0  27212-2 0  9996
2  8562 101.6666  61.4047 0263863 259.1031 129.6986 12.15346056326982
Epoch: 2025-10-27T06:59Z
TLE epoch observation values (Epoch: 2025-10-27T06:59:13.402Z)
Latitude
30.41677°
Longitude
-86.22581°
Altitude
1,754.299 km
Speed
6.944 km/s
True Right ascension
03h 37m 54s
True Declination
30° 17' 07"
Sunlit
Object was in full shadow at epoch
Visualization orbit readout
Latitude
Unknown
Longitude
Unknown
Altitude
Unknown
Speed
Unknown
Apparent Right ascension
Unknown
Apparent Declination
Unknown
Sunlit
N/A
Visualization observer readout
Local Sidereal Time
19:18:35
Azimuth
Unknown
Elevation
Unknown
Doppler factor
Unknown
Orbital elements
Apogee altitude
1,821.251 km
Perigee altitude
1,399.672 km
Semi-major axis
7,988.599 km
Eccentricity
0.02639
Inclination
101.6666°
RAAN
61.4047°
Arg. of periapsis
259.1031°
True anomaly
131.9764°
Mean anomaly
129.6986°
Eccentric anomaly
130.84231°
Mean motion
3.03975 °/min
Orbital period
118.43 mins
BSTAR
0.0027212
Loading maneuver chart data...
Computing Atmospheric mass density...

Documentation

Showing up to 5 results
|